WetterOnline ( https://www.wetteronline.de )

Wetter aktuell Vimmerby

Aktuelles Wetter: Hultsfred Swedish Air Force (112m)

6-stündlich | Neueste Meldungen
Ortszeit Temperatur Wetter
Fr, 14.08. 20:00 22.1° C wolkenlos
Fr, 14.08. 14:00 27.9° C leicht bewölkt
Fr, 14.08. 8:00 16.5° C leicht bewölkt
Fr, 14.08. 2:00 13.6° C leicht bewölkt
Do, 13.08. 20:00 24.2° C wolkenlos
Do, 13.08. 14:00 27.7° C leicht bewölkt
Do, 13.08. 8:00 15.8° C wolkenlos
Do, 13.08. 2:00 9.6° C wolkenlos
Ortszeit Temperatur Wetter
Sa, 15.08. 1:00 12.7° C wolkenlos
Sa, 15.08. 0:00 13.6° C wolkenlos
Fr, 14.08. 23:00 14.5° C wolkenlos
Fr, 14.08. 22:00 15.8° C wolkenlos
Fr, 14.08. 21:00 17.8° C wolkenlos
Fr, 14.08. 20:00 22.1° C wolkenlos
Ortszeit Relative Feuchte Sichtweite
Fr, 14.08. 20:00 57% 19 km
Fr, 14.08. 14:00 38% 12 km
Fr, 14.08. 8:00 85% 16 km
Fr, 14.08. 2:00 94% 14 km
Do, 13.08. 20:00 52% 27 km
Do, 13.08. 14:00 39% 19 km
Do, 13.08. 8:00 87% 18 km
Do, 13.08. 2:00 97% 15 km
Ortszeit Relative Feuchte Sichtweite
Sa, 15.08. 1:00 96% 12 km
Sa, 15.08. 0:00 94% 14 km
Fr, 14.08. 23:00 94% 16 km
Fr, 14.08. 22:00 88% 18 km
Fr, 14.08. 21:00 76% 20 km
Fr, 14.08. 20:00 57% 19 km
Ortszeit Niederschlagsmenge Niederschlagsart
Fr, 14.08. 20:00 0.2 l/m2 in 12 Std. Regenschauer
Fr, 14.08. 14:00 keine Meldung -
Fr, 14.08. 8:00 0.0 l/m2 in 12 Std. -
Fr, 14.08. 2:00 0.0 l/m2 in 1 Std. -
Do, 13.08. 20:00 0.0 l/m2 in 12 Std. -
Do, 13.08. 14:00 0.0 l/m2 in 1 Std. -
Do, 13.08. 8:00 0.0 l/m2 in 12 Std. -
Do, 13.08. 2:00 0.0 l/m2 in 1 Std. -
Ortszeit Niederschlagsmenge Niederschlagsart
Sa, 15.08. 1:00 0.0 l/m2 in 1 Std. -
Sa, 15.08. 0:00 0.0 l/m2 in 1 Std. -
Fr, 14.08. 23:00 0.0 l/m2 in 1 Std. -
Fr, 14.08. 22:00 0.0 l/m2 in 1 Std. -
Fr, 14.08. 21:00 0.0 l/m2 in 1 Std. -
Fr, 14.08. 20:00 0.0 l/m2 in 1 Std. Regenschauer
Ortszeit Stärke Spitze Richtung
km/h Bft. km/h Grad Sektor
Fr, 14.08. 20:00 4 1 - 140° SO
Fr, 14.08. 14:00 7 2 - 280° W
Fr, 14.08. 8:00 6 1 - 260° W
Fr, 14.08. 2:00 4 1 7 270° W
Do, 13.08. 20:00 4 1 - 350° N
Do, 13.08. 14:00 11 2 18 250° W
Do, 13.08. 8:00 11 2 18 250° W
Do, 13.08. 2:00 4 1 4 250° W
Ortszeit Stärke Spitze Richtung
km/h Bft. km/h Grad Sektor
Sa, 15.08. 1:00 2 1 4 230° SW
Sa, 15.08. 0:00 0 0 4 - -
Fr, 14.08. 23:00 4 1 4 340° N
Fr, 14.08. 22:00 0 0 4 - -
Fr, 14.08. 21:00 0 0 7 - -
Fr, 14.08. 20:00 4 1 14 140° SO
Ortszeit Untergrenze Bedeckung Gattung
total tief tief mittel hoch
Fr, 14.08. 20:00 - 0/8 0/8 - - -
Fr, 14.08. 14:00 2700 m 5/8 1/8 - - -
Fr, 14.08. 8:00 5400 m 4/8 4/8 - - -
Fr, 14.08. 2:00 6300 m 5/8 1/8 - - -
Do, 13.08. 20:00 - 0/8 0/8 - - -
Do, 13.08. 14:00 1500 m 4/8 2/8 - - -
Do, 13.08. 8:00 - 0/8 0/8 - - -
Do, 13.08. 2:00 - 0/8 0/8 - - -
Ortszeit Bedeckungsgrad in Achtel und Wolkenuntergrenze
Sa, 15.08. 1:00 keine Wolken
Sa, 15.08. 0:00 keine Wolken
Fr, 14.08. 23:00 keine Wolken
Fr, 14.08. 22:00 keine Wolken
Fr, 14.08. 21:00 keine Wolken
Fr, 14.08. 20:00 keine Wolken
Ortszeit Luftdruck NN (hPa) Tendenz (hPa in 3 Std.)
Fr, 14.08. 20:00 1014 - 0,5
Fr, 14.08. 14:00 1014 - 0,9
Fr, 14.08. 8:00 1016 - 0,2
Fr, 14.08. 2:00 1017 + 0,1
Do, 13.08. 20:00 1016 - 0,4
Do, 13.08. 14:00 1017 - 1,1
Do, 13.08. 8:00 1019 - 1,0
Do, 13.08. 2:00 1022 - 0,2
Ortszeit Luftdruck NN (hPa) Tendenz (hPa in 3 Std.)
Sa, 15.08. 1:00 1016 + 0,9
Sa, 15.08. 0:00 1016 + 1,3
Fr, 14.08. 23:00 1016 + 1,4
Fr, 14.08. 22:00 1015 + 1,2
Fr, 14.08. 21:00 1015 + 0,5
Fr, 14.08. 20:00 1014 - 0,5
Ortszeit Schneehöhe (cm)
Fr, 14.08. 20:00 -
Fr, 14.08. 14:00 -
Fr, 14.08. 8:00 -
Fr, 14.08. 2:00 -
Do, 13.08. 20:00 -
Do, 13.08. 14:00 -
Do, 13.08. 8:00 -
Do, 13.08. 2:00 -
Ortszeit Schneehöhe (cm)
Sa, 15.08. 1:00 -
Sa, 15.08. 0:00 -
Fr, 14.08. 23:00 -
Fr, 14.08. 22:00 -
Fr, 14.08. 21:00 -
Fr, 14.08. 20:00 -
Link zu dieser Seite / Seite empfehlen

Das Wetter in ...